Kalamazoo, MI

1:29 AM EDT on October 17, 2017 (GMT -0400)
Kalamazoo-Battle Creek International

Weather History for KAZO - August, 2012

Change the Weather History Date:

Wednesday, August 1, 2012

  Actual Average Record
Temperature  
Mean Temperature 74 °F 72 °F  
Max Temperature 86 °F 82 °F 99 °F (1988)
Min Temperature 62 °F 62 °F 49 °F (1952)
Degree Days  
Heating Degree Days 0 0  
Month to date heating degree days 0  
Since 1 June heating degree days 53  
Since 1 July heating degree days 5  
Cooling Degree Days 9 7  
Month to date cooling degree days 7  
Year to date cooling degree days 433  
Since 1 June cooling degree days 392  
Growing Degree Days 24 (Base 50)    
Moisture  
Dew Point 60 °F    
Average Humidity 66    
Maximum Humidity 96    
Minimum Humidity 35    
Precipitation  
Precipitation 0.00 in 0.09 in 1.20 in (1950)
Month to date precipitation 0.00 0.09  
Year to date precipitation 19.81  
Sea Level Pressure  
Sea Level Pressure 29.94 in    
Wind  
Wind Speed 4 mph (NNW)    
Max Wind Speed 13 mph    
Max Gust Speed 16 mph    
Visibility 10 miles    
Events      
T = Trace of Precipitation, MM = Missing Value Source: NWS Daily Summary

Daily Weather History Graph

Daily Weather History Graph

Search for Another Location

Airport or City:

Trip Planner

Search our weather history database for the weather conditions in past years. The results will help you decide how hot, cold, wet, or windy it might be!

Date:

Astronomy

Aug. 01, 2012 Rise Set
Actual Time 6:35 AM EDT 9:00 PM EDT
Civil Twilight 6:03 AM EDT 9:32 PM EDT
Nautical Twilight 5:24 AM EDT 10:11 PM EDT
Astronomical Twilight 4:40 AM EDT 10:55 PM EDT
Moon 8:29 PM EDT (8/1) 6:04 AM EDT (8/1)
Length of Visible Light 15h 28m
Length of Day
14h 25m
Full, 100% of the Moon is Illuminated
Aug 1
Full
Aug 1
Full
Aug 9
Last Quarter
Aug 17
New
Aug 24
First Quarter

Hourly Weather History & Observations

Time (EDT) Temp. Heat Index Dew Point Humidity Pressure Visibility Wind Dir Wind Speed Gust Speed Precip Events Conditions
12:53 AM 69.1 °F - 64.0 °F 84% 29.94 in 10.0 mi North 3.5 mph - N/A   Clear
1:53 AM 64.9 °F - 63.0 °F 93% 29.94 in 10.0 mi NW 4.6 mph - N/A   Clear
2:53 AM 66.0 °F - 63.0 °F 90% 29.94 in 10.0 mi North 4.6 mph - N/A   Clear
3:53 AM 64.0 °F - 63.0 °F 96% 29.95 in 10.0 mi Calm Calm - N/A   Clear
4:53 AM 64.0 °F - 62.1 °F 93% 29.95 in 10.0 mi Calm Calm - N/A   Partly Cloudy
5:53 AM 62.1 °F - 61.0 °F 96% 29.96 in 8.0 mi Calm Calm - N/A   Clear
6:53 AM 62.1 °F - 61.0 °F 96% 29.96 in 10.0 mi NNW 3.5 mph - N/A   Clear
7:53 AM 64.9 °F - 63.0 °F 93% 29.97 in 5.0 mi Calm Calm - N/A   Clear
8:53 AM 70.0 °F - 62.1 °F 76% 29.97 in 10.0 mi North 3.5 mph - N/A   Clear
9:53 AM 73.9 °F - 57.9 °F 57% 29.97 in 10.0 mi North 8.1 mph - N/A   Clear
10:53 AM 77.0 °F - 57.0 °F 50% 29.97 in 10.0 mi North 9.2 mph - N/A   Clear
11:53 AM 79.0 °F - 55.9 °F 45% 29.97 in 10.0 mi North 10.4 mph - N/A   Clear
12:53 PM 81.0 °F 80.7 °F 55.0 °F 41% 29.96 in 10.0 mi Variable 5.8 mph - N/A   Clear
1:53 PM 82.0 °F 81.4 °F 55.0 °F 39% 29.95 in 10.0 mi WNW 5.8 mph - N/A   Clear
2:53 PM 82.9 °F 81.8 °F 53.1 °F 36% 29.94 in 10.0 mi North 4.6 mph - N/A   Clear
3:53 PM 84.0 °F 82.9 °F 55.0 °F 37% 29.93 in 10.0 mi Calm Calm - N/A   Clear
4:53 PM 84.9 °F 83.6 °F 55.0 °F 36% 29.93 in 10.0 mi NW 11.5 mph - N/A   Clear
5:53 PM 86.0 °F 84.5 °F 55.0 °F 35% 29.91 in 10.0 mi Variable 3.5 mph - N/A   Clear
6:53 PM 84.0 °F 84.0 °F 60.1 °F 44% 29.91 in 10.0 mi WNW 8.1 mph - N/A   Clear
7:53 PM 80.1 °F 81.2 °F 62.1 °F 54% 29.90 in 10.0 mi NW 6.9 mph - N/A   Clear
8:53 PM 77.0 °F - 62.1 °F 60% 29.91 in 10.0 mi NW 5.8 mph - N/A   Clear
9:53 PM 73.0 °F - 60.1 °F 64% 29.90 in 10.0 mi North 3.5 mph - N/A   Clear
10:53 PM 68.0 °F - 62.1 °F 81% 29.89 in 10.0 mi South 3.5 mph - N/A   Clear
11:53 PM 68.0 °F - 62.1 °F 81% 29.89 in 10.0 mi Calm Calm - N/A   Clear